TimeCDT,TemperatureF,Dew PointF,Humidity,Sea Level PressureIn,VisibilityMPH,Wind Direction,Wind SpeedMPH,Gust SpeedMPH,PrecipitationIn,Events,Conditions,WindDirDegrees,DateUTC
12:52 AM,37.9,36.0,93,30.38,10.0,Calm,Calm,-,N/A,,Clear,0,2013-05-25 05:52:00
1:52 AM,39.9,37.0,89,30.35,10.0,Calm,Calm,-,N/A,,Clear,0,2013-05-25 06:52:00
2:52 AM,39.0,37.0,93,30.35,10.0,Calm,Calm,-,N/A,,Clear,0,2013-05-25 07:52:00
3:52 AM,39.9,37.0,89,30.38,10.0,WNW,3.5,-,N/A,,Clear,300,2013-05-25 08:52:00
4:52 AM,41.0,37.9,89,30.35,10.0,NNE,5.8,-,N/A,,Clear,30,2013-05-25 09:52:00
5:52 AM,44.1,39.9,85,30.38,10.0,Calm,Calm,-,N/A,,Mostly Cloudy,0,2013-05-25 10:52:00
6:52 AM,46.0,39.9,79,30.41,10.0,Calm,Calm,-,N/A,,Mostly Cloudy,0,2013-05-25 11:52:00
7:52 AM,48.0,39.9,74,30.41,10.0,NNE,4.6,-,N/A,,Overcast,30,2013-05-25 12:52:00
8:52 AM,51.1,41.0,68,30.42,10.0,Calm,Calm,-,N/A,,Overcast,0,2013-05-25 13:52:00
9:52 AM,51.1,42.1,71,30.41,10.0,NE,8.1,-,N/A,,Overcast,50,2013-05-25 14:52:00
10:52 AM,48.9,41.0,74,30.42,10.0,NE,6.9,-,N/A,,Overcast,40,2013-05-25 15:52:00
11:52 AM,50.0,39.9,68,30.41,10.0,ENE,6.9,-,N/A,,Overcast,60,2013-05-25 16:52:00
12:52 PM,48.9,39.9,71,30.40,10.0,ENE,3.5,-,N/A,,Overcast,70,2013-05-25 17:52:00
1:52 PM,50.0,39.9,68,30.37,10.0,ENE,10.4,-,N/A,,Mostly Cloudy,70,2013-05-25 18:52:00
2:52 PM,52.0,39.9,63,30.35,10.0,ENE,6.9,-,N/A,,Scattered Clouds,70,2013-05-25 19:52:00
3:52 PM,53.1,37.0,55,30.35,10.0,ENE,4.6,-,N/A,,Overcast,60,2013-05-25 20:52:00
4:52 PM,54.0,35.1,49,30.34,10.0,ENE,5.8,-,N/A,,Overcast,60,2013-05-25 21:52:00
5:52 PM,53.1,37.0,55,30.33,10.0,NE,6.9,-,N/A,,Overcast,50,2013-05-25 22:52:00
6:52 PM,50.0,37.0,61,30.33,10.0,NNE,6.9,-,N/A,,Overcast,30,2013-05-25 23:52:00
7:52 PM,48.9,36.0,61,30.32,10.0,NNE,4.6,-,N/A,,Overcast,30,2013-05-26 00:52:00
8:52 PM,48.0,35.1,61,30.32,10.0,NNE,4.6,-,N/A,,Overcast,20,2013-05-26 01:52:00
9:52 PM,44.1,36.0,73,30.33,10.0,NNE,4.6,-,N/A,,Mostly Cloudy,20,2013-05-26 02:52:00
10:52 PM,41.0,35.1,79,30.35,10.0,Calm,Calm,-,N/A,,Clear,0,2013-05-26 03:52:00
11:52 PM,39.0,36.0,89,30.34,10.0,Calm,Calm,-,N/A,,Clear,0,2013-05-26 04:52:00